Date String (YYYY-MM-DD hh:mm:ss) UTC,Instrument flags,absolute air pressure of the measurement (hPa),sample flow rate (lpm),inlet stack bypass flow (lpm),air temperature of the measurement (°C),ambient temperature measured by the external sensor (°C),aerosol sample conditioner tube jacket temperature (°C),OPC LED temperature (°C),internal box temperature (°C),relative humidity of the measurement (%),span deviation,mass concentration of particles derived from Lorenz-Mie calculation of OPC scattering (μg/m³),mass concentration of particles derived from Lorenz-Mie calculation of OPC scattering (μg/m³),mass concentration of particles derived from Lorenz-Mie calculation of OPC scattering (μg/m³)
DateTimeUTC,F1_M11,P_M11,Q1_M11,Q2_M11,T1_M11,T2_M11,T3_M11,T4_M11,T5_M11,U1_M11,ZSPAN_M11,X0_M11,X2_M11,X1_M11
2023-12-14 18:00:00,SystemResetWarning,0833.0,5.00,000.00,018.8,017.9,000.0,027.2,020.0,22.3,0000.4,0026.38,0018.11,0017.16
2023-12-14 18:01:00,SystemResetWarning,0833.0,4.99,000.00,018.8,017.9,000.0,027.2,020.0,22.4,0000.5,0026.32,0018.18,0017.22
2023-12-14 18:02:00,SystemResetWarning,0833.0,5.00,000.00,018.8,017.8,000.0,027.2,020.0,22.4,0000.4,0026.49,0018.26,0017.28
2023-12-14 18:03:00,SystemResetWarning,0833.1,5.00,000.00,018.7,017.8,000.0,027.2,020.0,22.3,0000.4,0026.22,0018.39,0017.37
2023-12-14 18:04:00,SystemResetWarning,0833.1,5.00,000.00,018.7,017.8,000.0,027.2,020.0,22.3,0000.2,0025.83,0018.42,0017.45
2023-12-14 18:05:00,SystemResetWarning,0833.2,5.01,000.00,018.7,017.8,000.0,027.2,020.0,22.2,0000.3,0025.77,0018.47,0017.54
2023-12-14 18:06:00,SystemResetWarning,0833.1,5.00,000.00,018.7,017.7,000.0,027.2,020.0,22.3,0000.4,0025.71,0018.54,0017.63
2023-12-14 18:07:00,SystemResetWarning,0833.0,5.00,000.00,018.7,017.7,000.0,027.2,020.0,22.5,0000.4,0025.62,0018.55,0017.68
2023-12-14 18:08:00,SystemResetWarning,0833.1,5.00,000.00,018.7,017.7,000.0,027.2,020.0,22.7,0000.4,0025.90,0018.67,0017.76
2023-12-14 18:09:00,SystemResetWarning,0832.9,4.99,000.00,018.7,017.7,000.0,027.2,020.0,22.7,0000.5,0025.60,0018.73,0017.83
2023-12-14 18:10:00,SystemResetWarning,0833.1,4.99,000.00,018.7,017.7,000.0,027.2,020.0,22.6,0000.5,0025.54,0018.73,0017.86
2023-12-14 18:11:00,SystemResetWarning,0833.0,5.00,000.00,018.7,017.7,000.0,027.2,020.0,22.5,0000.4,0026.38,0018.79,0017.87
2023-12-14 18:12:00,SystemResetWarning,0833.1,5.01,000.00,018.7,017.7,000.0,027.2,020.0,22.4,0000.3,0026.95,0018.82,0017.90
2023-12-14 18:13:00,SystemResetWarning,0833.0,5.01,000.00,018.7,017.7,000.0,027.2,020.0,22.6,0000.4,0027.00,0018.79,0017.92
2023-12-14 18:14:00,SystemResetWarning,0833.1,4.99,000.00,018.7,017.7,000.0,027.2,020.0,22.6,0000.3,0026.84,0018.74,0017.91
2023-12-14 18:15:00,SystemResetWarning,0833.0,5.00,000.00,018.7,017.7,000.0,027.2,020.0,22.6,0000.5,0027.21,0018.77,0017.91
2023-12-14 18:16:00,SystemResetWarning,0832.9,5.00,000.00,018.7,017.7,000.0,027.2,020.0,22.7,0000.5,0027.70,0018.84,0017.93
2023-12-14 18:17:00,SystemResetWarning,0833.0,5.00,000.00,018.7,017.8,000.0,027.2,020.0,22.8,0000.4,0027.95,0018.92,0017.99
2023-12-14 18:18:00,SystemResetWarning,0833.0,5.00,000.00,018.7,017.8,000.0,027.2,020.0,22.8,0000.4,0028.17,0019.02,0018.06
2023-12-14 18:19:00,SystemResetWarning,0832.8,5.01,000.00,018.7,017.8,000.0,027.2,020.0,22.7,0000.4,0028.21,0019.06,0018.12
2023-12-14 18:20:00,SystemResetWarning,0832.8,5.00,000.00,018.7,017.8,000.0,027.2,020.0,22.6,0000.4,0028.38,0019.08,0018.16
2023-12-14 18:21:00,SystemResetWarning,0832.8,5.00,000.00,018.7,017.8,000.0,027.2,020.0,22.6,0000.4,0028.26,0019.17,0018.20
2023-12-14 18:22:00,SystemResetWarning,0832.8,5.00,000.00,018.7,017.8,000.0,027.2,020.0,22.7,0000.4,0027.74,0019.22,0018.24
2023-12-14 18:23:00,SystemResetWarning,0832.7,5.00,000.00,018.7,017.7,000.0,027.2,020.0,22.6,0000.4,0027.35,0019.24,0018.23
2023-12-14 18:24:00,SystemResetWarning,0832.7,4.99,000.00,018.7,017.7,000.0,027.2,020.0,22.8,0000.4,0027.66,0019.28,0018.25
2023-12-14 18:25:00,SystemResetWarning,0832.7,5.00,000.00,018.7,017.8,000.0,027.2,020.0,22.6,0000.4,0028.01,0019.34,0018.30
2023-12-14 18:26:00,SystemResetWarning,0832.6,4.99,000.00,018.7,017.8,000.0,027.2,020.0,22.7,0000.4,0027.88,0019.38,0018.34
2023-12-14 18:27:00,SystemResetWarning,0832.6,4.99,000.00,018.7,017.8,000.0,027.2,020.0,22.7,0000.4,0027.55,0019.41,0018.37
2023-12-14 18:28:00,SystemResetWarning,0832.7,5.01,000.00,018.7,017.7,000.0,027.2,020.0,22.7,0000.3,0027.61,0019.41,0018.36
2023-12-14 18:29:00,SystemResetWarning,0832.7,5.01,000.00,018.7,017.8,000.0,027.2,020.0,22.7,0000.3,0028.08,0019.41,0018.34
2023-12-14 18:30:00,SystemResetWarning,0832.6,5.00,000.00,018.7,017.7,000.0,027.2,020.0,22.8,0000.3,0028.01,0019.37,0018.30
2023-12-14 18:31:00,SystemResetWarning,0832.6,4.99,000.00,018.7,017.7,000.0,027.2,020.0,22.9,0000.3,0028.23,0019.34,0018.27
2023-12-14 18:32:00,SystemResetWarning,0832.6,4.99,000.00,018.7,017.7,000.0,027.2,020.0,22.9,0000.0,0028.76,0019.31,0018.23
2023-12-14 18:33:00,SystemResetWarning,0832.6,5.00,000.00,018.7,017.7,000.0,027.2,020.0,22.7,0000.1,0028.69,0019.17,0018.15
2023-12-14 18:34:00,SystemResetWarning,0832.5,5.00,000.00,018.7,017.7,000.0,027.2,020.0,22.6,0000.2,0028.43,0019.09,0018.09
2023-12-14 18:35:00,SystemResetWarning,0832.5,5.01,000.00,018.7,017.7,000.0,027.2,020.0,22.4,0000.2,0028.15,0019.06,0018.05
2023-12-14 18:36:00,SystemResetWarning,0832.5,5.00,000.00,018.7,017.7,000.0,027.2,020.0,22.4,0000.3,0027.77,0018.97,0018.00
2023-12-14 18:37:00,SystemResetWarning,0832.5,5.01,000.00,018.7,017.7,000.0,027.2,020.0,22.5,0000.4,0027.68,0018.92,0017.96
2023-12-14 18:38:00,SystemResetWarning,0832.5,5.00,000.00,018.7,017.7,000.0,027.2,020.0,22.5,0000.5,0027.36,0018.78,0017.89
2023-12-14 18:39:00,SystemResetWarning,0832.5,5.00,000.00,018.7,017.7,000.0,027.2,020.0,22.6,0000.4,0027.11,0018.64,0017.81
2023-12-14 18:40:00,SystemResetWarning,0832.5,5.00,000.00,018.7,017.7,000.0,027.1,020.0,22.7,0000.3,0026.62,0018.56,0017.75
2023-12-14 18:41:00,SystemResetWarning,0832.5,4.99,000.00,018.7,017.7,000.0,027.1,020.0,22.7,0000.3,0026.37,0018.48,0017.67
2023-12-14 18:42:00,SystemResetWarning,0832.5,5.00,000.00,018.7,017.7,000.0,027.2,020.0,22.8,0000.5,0025.99,0018.47,0017.64
2023-12-14 18:43:00,SystemResetWarning,0832.4,5.00,000.00,018.7,017.7,000.0,027.2,020.0,22.9,0000.7,0025.29,0018.40,0017.59
2023-12-14 18:44:00,SystemResetWarning,0832.4,5.00,000.00,018.7,017.7,000.0,027.2,020.0,22.8,0000.7,0024.96,0018.41,0017.60
2023-12-14 18:45:00,SystemResetWarning,0832.4,5.00,000.00,018.7,017.7,000.0,027.2,020.0,22.7,0000.6,0025.04,0018.39,0017.59
2023-12-14 18:46:00,SystemResetWarning,0832.3,5.00,000.00,018.7,017.7,000.0,027.2,020.0,22.7,0000.6,0025.12,0018.35,0017.59
2023-12-14 18:47:00,SystemResetWarning,0832.3,5.00,000.00,018.7,017.7,000.0,027.2,020.0,22.7,0000.7,0024.76,0018.30,0017.55
2023-12-14 18:48:00,SystemResetWarning,0832.2,5.00,000.00,018.7,017.7,000.0,027.2,020.0,22.7,0000.6,0024.78,0018.24,0017.51
2023-12-14 18:49:00,SystemResetWarning,0832.2,5.00,000.00,018.7,017.7,000.0,027.2,020.0,22.6,0000.6,0024.98,0018.28,0017.50
2023-12-14 18:50:00,SystemResetWarning,0832.2,5.00,000.00,018.7,017.7,000.0,027.2,020.0,22.5,0000.7,0025.12,0018.34,0017.50
2023-12-14 18:51:00,SystemResetWarning,0832.2,5.00,000.00,018.7,017.7,000.0,027.2,020.0,22.4,0000.8,0024.92,0018.30,0017.46
2023-12-14 18:52:00,SystemResetWarning,0832.2,5.00,000.00,018.7,017.7,000.0,027.2,020.0,22.4,0000.8,0024.97,0018.31,0017.46
2023-12-14 18:53:00,SystemResetWarning,0832.2,5.00,000.00,018.7,017.6,000.0,027.2,020.0,22.5,0000.7,0024.87,0018.27,0017.41
2023-12-14 18:54:00,SystemResetWarning,0832.1,5.00,000.00,018.7,017.6,000.0,027.2,020.0,22.4,0000.7,0024.78,0018.25,0017.38
2023-12-14 18:55:00,SystemResetWarning,0832.2,5.00,000.00,018.7,017.6,000.0,027.2,020.0,22.5,0000.8,0024.68,0018.15,0017.32
2023-12-14 18:56:00,SystemResetWarning,0832.2,5.00,000.00,018.7,017.6,000.0,027.2,020.0,22.4,0000.8,0024.63,0018.10,0017.28
2023-12-14 18:57:00,SystemResetWarning,0832.2,5.00,000.00,018.7,017.7,000.0,027.2,020.0,22.4,0000.8,0024.45,0018.09,0017.28
2023-12-14 18:58:00,SystemResetWarning,0832.2,5.00,000.00,018.7,017.6,000.0,027.2,020.0,22.6,0000.7,0024.57,0018.16,0017.31
2023-12-14 18:59:00,SystemResetWarning,0832.2,5.00,000.00,018.7,017.6,000.0,027.2,020.0,22.8,0000.5,0024.55,0018.20,0017.32
